M I D A S
Marine Information and Data Acquisition System
Tripno 2025 of the Zeeleeuw from 2010-10-26 07:02:43 to 2010-10-26 15:31:46
Back to CruiseResearch ActivitiesStationsMapUnderway DataData graphs

EquipmentUnitsComment
TimeDGPSUTC
LatitudeDGPSDM.mWGS84
LongitudeDGPSDM.mWGS84
TemperatureSBE03/SBE38deg celciusITS90
ConductivitySBE21S/mITS90
SalinitySBE21 Practical Salinity Units
ChlorophylAChelsea fluorimeterg/lCalibrated in Aceton
Missing or incorrect values are displayed as -999
Sea surface data collected by the RV Zeeleeuw from 2010-10-26 06:59:19 to 2010-10-26 15:36:40
Time Latitude Longitude Temperature Conductivity Salinity ChlorophylA
2010-10-26 07:00:22 51°13.662 2°55.961 16.391 0.070677 0.400242 -0.687152
2010-10-26 07:01:20 51°13.662 2°55.961 16.3927 0.070677 0.400275 -0.687152
2010-10-26 07:02:20 51°13.662 2°55.96 16.3968 0.070677 0.400316 -0.652328
2010-10-26 07:03:20 51°13.663 2°55.961 16.3867 0.070677 0.40035 -0.687152
2010-10-26 07:04:20 51°13.663 2°55.96 16.4008 0.070677 0.400397 -0.687152
2010-10-26 07:05:20 51°13.664 2°55.96 16.4118 0.070677 0.400431 -0.652328
2010-10-26 07:06:20 51°13.663 2°55.96 16.4283 0.070677 0.400471 -0.687152
2010-10-26 07:07:20 51°13.663 2°55.96 16.4259 0.070573 0.399902 -0.652328
2010-10-26 07:08:20 51°13.662 2°55.96 16.4359 0.070573 0.399943 -0.652328
2010-10-26 07:09:20 51°13.666 2°55.946 16.2845 0.070573 0.399997 -0.652328
2010-10-26 07:10:24 51°13.684 2°55.847 16.3657 0.070573 0.400031 -0.687152
2010-10-26 07:11:23 51°13.689 2°55.756 16.4198 0.070573 0.400051 -0.687152
2010-10-26 07:12:22 51°13.701 2°55.752 16.3861 0.070573 0.400071 -0.687152
2010-10-26 07:13:21 51°13.735 2°55.729 16.4367 0.070573 0.400078 -0.652328
2010-10-26 07:14:20 51°13.812 2°55.642 16.146 0.070573 0.400193 -0.652328
2010-10-26 07:15:20 51°13.935 2°55.552 16.1967 0.070573 0.400247 -0.652328
2010-10-26 07:16:22 51°14.074 2°55.454 16.2901 0.070469 0.399671 -0.687152
2010-10-26 07:17:24 51°14.222 2°55.327 16.1922 0.070469 0.399731 -0.652328
2010-10-26 07:18:24 51°14.372 2°55.184 16.1945 0.070469 0.399813 -0.687152
2010-10-26 07:19:23 51°14.532 2°55.02 16.0948 0.070469 0.399955 -0.652328
2010-10-26 07:20:20 51°14.683 2°54.839 16.0133 0.070469 0.400104 -0.687152
2010-10-26 07:21:20 51°14.849 2°54.673 16.0232 0.070469 0.400124 -0.687152
2010-10-26 07:22:20 51°15.022 2°54.552 15.9983 0.070469 0.400165 -0.652328
2010-10-26 07:23:20 51°15.197 2°54.484 16.0101 0.070469 0.400409 -0.652328
2010-10-26 07:24:20 51°15.341 2°54.281 15.9825 0.070469 0.400287 -0.687152
2010-10-26 07:25:20 51°15.461 2°54.08 15.9922 0.070469 0.400525 -0.652328
2010-10-26 07:26:20 51°15.541 2°53.932 15.9973 0.070469 0.400511 -0.687152
2010-10-26 07:27:20 51°15.607 2°53.809 15.9916 0.070469 0.400559 -0.687152
2010-10-26 07:28:20 51°15.672 2°53.69 15.9892 0.070469 0.400538 -0.652328
2010-10-26 07:29:20 51°15.748 2°53.573 15.9984 0.070469 0.400667 -0.687152
2010-10-26 07:30:20 51°15.823 2°53.463 16.0162 0.070365 0.400008 -0.687152
2010-10-26 07:31:20 51°15.899 2°53.357 16.0102 0.070469 0.400742 -0.652328
2010-10-26 07:32:20 51°15.978 2°53.259 16.0278 0.070469 0.400804 -0.687152
2010-10-26 07:33:20 51°16.059 2°53.162 16.013 0.070469 0.400878 -0.652328
2010-10-26 07:34:20 51°16.139 2°53.066 16.0112 0.070365 0.400246 -0.687152
2010-10-26 07:35:20 51°16.221 2°52.971 16.0373 0.070365 0.400443 -0.721976
2010-10-26 07:36:20 51°16.306 2°52.884 16.0241 0.070365 0.400395 -0.687152
2010-10-26 07:37:20 51°16.4 2°52.807 16.01 0.070261 0.399898 -0.687152
2010-10-26 07:38:20 51°16.496 2°52.728 16.0506 0.070261 0.399939 -0.687152
2010-10-26 07:39:20 51°16.592 2°52.65 16.0424 0.070261 0.400014 -0.687152
2010-10-26 07:40:20 51°16.692 2°52.596 16.0414 0.070261 0.399987 -0.652328
2010-10-26 07:41:20 51°16.794 2°52.554 16.0575 0.070261 0.400034 -0.687152
2010-10-26 07:42:20 51°16.895 2°52.507 16.0612 0.070261 0.400164 -0.687152
2010-10-26 07:43:20 51°16.994 2°52.459 16.0748 0.070261 0.400116 -0.687152
2010-10-26 07:44:20 51°17.092 2°52.411 16.0655 0.070261 0.400225 -0.652328
2010-10-26 07:45:20 51°17.191 2°52.364 16.0622 0.070261 0.400259 -0.687152
2010-10-26 07:46:20 51°17.289 2°52.326 16.0569 0.070261 0.400273 -0.652328
2010-10-26 07:47:20 51°17.39 2°52.316 16.092 0.070261 0.400423 -0.687152
2010-10-26 07:48:20 51°17.489 2°52.303 16.0879 0.070261 0.400545 -0.687152
2010-10-26 07:49:20 51°17.589 2°52.286 16.1168 0.070261 0.400559 -0.687152
2010-10-26 07:50:20 51°17.687 2°52.268 16.1266 0.070261 0.400709 -0.687152
2010-10-26 07:51:20 51°17.786 2°52.25 16.1385 0.070157 0.40013 -0.652328
2010-10-26 07:52:20 51°17.886 2°52.232 16.1335 0.070157 0.400109 -0.687152
2010-10-26 07:53:20 51°17.985 2°52.211 16.1594 0.070157 0.400314 -0.652328
2010-10-26 07:54:20 51°18.087 2°52.192 16.1715 0.070157 0.400252 -0.652328
2010-10-26 07:55:20 51°18.188 2°52.171 16.1742 0.070157 0.400389 -0.721976
2010-10-26 07:56:20 51°18.289 2°52.149 16.2032 0.070157 0.400396 -0.687152
2010-10-26 07:57:20 51°18.389 2°52.127 16.206 0.070157 0.400362 -0.652328
2010-10-26 07:58:20 51°18.489 2°52.104 16.2216 0.070157 0.400375 -0.687152
2010-10-26 07:59:20 51°18.591 2°52.083 16.239 0.070157 0.400478 -0.687152
2010-10-26 08:00:20 51°18.693 2°52.061 16.2302 0.070157 0.400519 -0.687152
2010-10-26 08:01:20 51°18.793 2°52.04 16.2383 0.070157 0.400662 -0.687152
2010-10-26 08:02:20 51°18.894 2°52.017 16.2599 0.070157 0.400635 -0.687152
2010-10-26 08:03:20 51°18.995 2°51.992 16.2857 0.070157 0.400902 -0.687152
2010-10-26 08:04:20 51°19.098 2°51.969 16.3011 0.070157 0.400799 -0.687152
2010-10-26 08:05:20 51°19.199 2°51.942 16.2896 0.070157 0.40084 -0.652328
2010-10-26 08:06:20 51°19.3 2°51.915 16.3175 0.070157 0.400977 -0.687152
2010-10-26 08:07:20 51°19.401 2°51.888 16.3238 0.070157 0.400943 -0.687152
2010-10-26 08:08:20 51°19.501 2°51.858 16.3491 0.070157 0.401101 -0.687152
2010-10-26 08:09:20 51°19.602 2°51.829 16.3433 0.070157 0.401046 -0.652328
2010-10-26 08:10:20 51°19.702 2°51.8 16.3627 0.070157 0.401135 -0.652328
2010-10-26 08:11:20 51°19.802 2°51.773 16.3763 0.070157 0.40108 -0.687152
2010-10-26 08:12:20 51°19.903 2°51.746 16.4005 0.070157 0.401211 -0.652328
2010-10-26 08:13:20 51°20.002 2°51.716 16.4141 0.070157 0.401307 -0.687152
2010-10-26 08:14:21 51°20.104 2°51.685 16.4183 0.070157 0.401437 -0.721976
2010-10-26 08:15:20 51°20.203 2°51.657 16.4407 0.070157 0.401341 -0.687152
2010-10-26 08:16:20 51°20.303 2°51.629 16.4651 0.070053 0.400478 -0.687152
2010-10-26 08:17:20 51°20.403 2°51.598 16.4674 0.070157 0.401444 -0.687152
2010-10-26 08:18:21 51°20.506 2°51.567 16.4869 0.070157 0.401396 -0.687152
2010-10-26 08:19:21 51°20.608 2°51.538 16.4844 0.070157 0.401485 -0.687152
2010-10-26 08:20:21 51°20.708 2°51.511 16.5019 0.070157 0.401547 -0.652328
2010-10-26 08:21:21 51°20.809 2°51.48 16.5135 0.070157 0.401554 -0.652328
2010-10-26 08:22:20 51°20.907 2°51.455 16.532 0.070157 0.401588 -0.652328
2010-10-26 08:23:21 51°21.01 2°51.428 16.5415 0.070157 0.401754 -0.687152
2010-10-26 08:24:21 51°21.111 2°51.402 16.5536 0.070053 0.401055 -0.687152
2010-10-26 08:25:21 51°21.212 2°51.373 16.5683 0.070157 0.401822 -0.652328
2010-10-26 08:26:21 51°21.312 2°51.345 16.5941 0.070157 0.401492 -0.721976
2010-10-26 08:27:21 51°21.413 2°51.321 16.5968 0.070053 0.401261 -0.652328
2010-10-26 08:28:21 51°21.514 2°51.294 16.6122 0.070053 0.401192 -0.687152
2010-10-26 08:29:20 51°21.613 2°51.269 16.6245 0.070053 0.401295 -0.687152
2010-10-26 08:30:20 51°21.715 2°51.242 16.6386 0.070053 0.401082 -0.652328
2010-10-26 08:31:20 51°21.816 2°51.215 16.6502 0.070053 0.401371 -0.652328
2010-10-26 08:32:21 51°21.917 2°51.188 16.6575 0.069949 0.401009 -0.687152
2010-10-26 08:33:21 51°22.017 2°51.165 16.6869 0.069949 0.400857 -0.687152
2010-10-26 08:34:21 51°22.117 2°51.142 16.6952 0.069949 0.400686 -0.687152
2010-10-26 08:35:21 51°22.216 2°51.126 16.713 0.069949 0.401036 -0.652328
2010-10-26 08:36:20 51°22.312 2°51.119 16.7297 0.069845 0.40024 -0.687152
2010-10-26 08:37:21 51°22.413 2°51.107 16.7222 0.069845 0.400192 -0.652328
2010-10-26 08:38:20 51°22.508 2°51.096 16.7411 0.069845 0.400234 -0.687152
2010-10-26 08:39:21 51°22.607 2°51.084 16.7682 0.069845 0.400309 -0.652328
2010-10-26 08:40:21 51°22.703 2°51.071 16.7771 0.069845 0.400028 -0.652328
2010-10-26 08:41:21 51°22.798 2°51.06 16.7878 0.069845 0.40046 -0.652328
2010-10-26 08:42:21 51°22.895 2°51.048 16.8055 0.069845 0.400749 -0.652328
2010-10-26 08:43:21 51°22.996 2°51.041 16.8289 0.069741 0.399987 -0.687152
2010-10-26 08:44:21 51°23.098 2°51.035 16.8364 0.06974 0.398708 -0.687152
2010-10-26 08:45:21 51°23.199 2°51.029 16.8557 0.06974 0.398994 -0.652328
2010-10-26 08:46:21 51°23.3 2°51.022 16.8549 0.06974 0.399487 -0.687152
2010-10-26 08:47:21 51°23.401 2°51.015 16.8752 0.06974 0.399514 -0.652328
2010-10-26 08:48:21 51°23.503 2°51.008 16.8715 0.06974 0.399528 -0.652328
2010-10-26 08:49:21 51°23.605 2°50.996 16.9001 0.069741 0.399898 -0.652328
2010-10-26 08:50:21 51°23.706 2°50.988 16.9265 0.069636 0.398583 -0.687152
2010-10-26 08:51:21 51°23.809 2°50.977 16.9237 0.069636 0.398412 -0.652328
2010-10-26 08:52:20 51°23.91 2°50.967 16.9445 0.069636 0.398303 -0.652328
2010-10-26 08:53:21 51°24.016 2°50.956 16.9656 0.06974 0.398823 -0.687152
2010-10-26 08:54:20 51°24.117 2°50.945 16.9644 0.069636 0.398487 -0.687152
2010-10-26 08:55:21 51°24.221 2°50.934 16.987 0.069636 0.398324 -0.652328
2010-10-26 08:56:20 51°24.322 2°50.922 16.9933 0.069636 0.398453 -0.652328
2010-10-26 08:57:21 51°24.423 2°50.913 17.0252 0.069636 0.398542 -0.652328
2010-10-26 08:58:20 51°24.524 2°50.899 17.0323 0.069636 0.398795 -0.687152
2010-10-26 08:59:20 51°24.624 2°50.885 17.0565 0.069636 0.398788 -0.687152
2010-10-26 09:00:21 51°24.724 2°50.872 17.0609 0.069636 0.398747 -0.687152
2010-10-26 09:01:21 51°24.825 2°50.86 17.0735 0.069636 0.398767 -0.687152
2010-10-26 09:02:21 51°24.928 2°50.844 17.0855 0.069636 0.399068 -0.687152
2010-10-26 09:03:20 51°25.024 2°50.83 17.1057 0.069636 0.398986 -0.652328
2010-10-26 09:04:21 51°25.125 2°50.814 17.1143 0.069741 0.399884 -0.687152
2010-10-26 09:05:20 51°25.222 2°50.799 17.1259 0.06974 0.399699 -0.687152
2010-10-26 09:06:21 51°25.325 2°50.785 17.1423 0.069741 0.399919 -0.652328
2010-10-26 09:07:21 51°25.426 2°50.769 17.1485 0.069845 0.400392 -0.687152
2010-10-26 09:08:20 51°25.525 2°50.754 17.1702 0.069845 0.400419 -0.652328
2010-10-26 09:09:21 51°25.626 2°50.738 17.1826 0.069845 0.400515 -0.652328
2010-10-26 09:10:20 51°25.724 2°50.72 17.1891 0.069845 0.400522 -0.652328
2010-10-26 09:11:21 51°25.826 2°50.705 17.2145 0.069845 0.400798 -0.652328
2010-10-26 09:12:21 51°25.929 2°50.687 17.2325 0.069949 0.401264 -0.617504
2010-10-26 09:13:21 51°26.03 2°50.672 17.2379 0.069949 0.401436 -0.652328
2010-10-26 09:14:20 51°26.131 2°50.655 17.2487 0.069949 0.401491 -0.652328
2010-10-26 09:15:20 51°26.235 2°50.639 17.2773 0.070053 0.402054 -0.652328
2010-10-26 09:16:20 51°26.34 2°50.623 17.286 0.070053 0.402081 -0.652328
2010-10-26 09:17:21 51°26.444 2°50.611 17.29 0.070053 0.402351 -0.652328
2010-10-26 09:18:21 51°26.549 2°50.596 17.3213 0.070053 0.402282 -0.652328
2010-10-26 09:19:21 51°26.653 2°50.583 17.3328 0.070053 0.40231 -0.687152
2010-10-26 09:20:21 51°26.756 2°50.571 17.3475 0.070053 0.402407 -0.652328
2010-10-26 09:21:21 51°26.86 2°50.56 17.3465 0.070053 0.402427 -0.687152
2010-10-26 09:22:21 51°26.962 2°50.551 17.3742 0.070053 0.402524 -0.687152
2010-10-26 09:23:20 51°27.062 2°50.538 17.3786 0.070157 0.403108 -0.652328
2010-10-26 09:24:21 51°27.164 2°50.528 17.3997 0.070157 0.403254 -0.652328
2010-10-26 09:25:21 51°27.265 2°50.518 17.4207 0.070157 0.403164 -0.617504
2010-10-26 09:26:21 51°27.365 2°50.503 17.4359 0.070157 0.403358 -0.652328
2010-10-26 09:27:21 51°27.466 2°50.49 17.455 0.070157 0.403261 -0.652328
2010-10-26 09:28:20 51°27.566 2°50.478 17.4553 0.070157 0.403192 -0.652328
2010-10-26 09:29:20 51°27.664 2°50.467 17.4567 0.070157 0.403497 -0.652328
2010-10-26 09:30:20 51°27.765 2°50.452 17.4963 0.070157 0.403449 -0.652328
2010-10-26 09:31:20 51°27.865 2°50.437 17.4867 0.070157 0.40347 -0.687152
2010-10-26 09:32:20 51°27.965 2°50.422 17.5187 0.070157 0.403602 -0.652328
2010-10-26 09:33:20 51°28.064 2°50.407 17.5427 0.070157 0.403539 -0.652328
2010-10-26 09:34:20 51°28.164 2°50.39 17.551 0.070053 0.402899 -0.687152
2010-10-26 09:35:20 51°28.265 2°50.37 17.5618 0.070053 0.40308 -0.652328
2010-10-26 09:36:20 51°28.365 2°50.353 17.5805 0.070053 0.40324 -0.652328
2010-10-26 09:37:20 51°28.464 2°50.333 17.5952 0.070053 0.403254 -0.652328
2010-10-26 09:38:20 51°28.561 2°50.315 17.6076 0.070053 0.403003 -0.687152
2010-10-26 09:39:20 51°28.661 2°50.295 17.6115 0.070053 0.403177 -0.617504
2010-10-26 09:40:20 51°28.76 2°50.278 17.6217 0.070053 0.403337 -0.617504
2010-10-26 09:41:20 51°28.854 2°50.303 17.6466 0.069949 0.402766 -0.652328
2010-10-26 09:42:20 51°28.952 2°50.35 17.6769 0.069949 0.402759 -0.617504
2010-10-26 09:43:20 51°29.056 2°50.394 17.6716 0.069949 0.402975 -0.617504
2010-10-26 09:44:20 51°29.165 2°50.439 17.679 0.069949 0.403009 -0.617504
2010-10-26 09:45:20 51°29.274 2°50.478 17.6923 0.069949 0.402947 -0.652328
2010-10-26 09:46:20 51°29.382 2°50.515 17.7187 0.069949 0.403009 -0.617504
2010-10-26 09:47:20 51°29.485 2°50.579 17.7198 0.069845 0.402514 -0.617504
2010-10-26 09:48:20 51°29.533 2°50.727 17.7407 0.069845 0.402417 -0.617504
2010-10-26 09:49:20 51°29.524 2°50.899 17.7613 0.069845 0.402626 -0.617504
2010-10-26 09:50:20 51°29.482 2°51.063 17.7632 0.069845 0.402786 -0.58268
2010-10-26 09:51:20 51°29.411 2°51.207 17.7744 0.069845 0.402716 -0.617504
2010-10-26 09:52:20 51°29.319 2°51.326 17.8251 0.069845 0.402772 -0.617504
2010-10-26 09:53:20 51°29.233 2°51.428 17.8423 0.069845 0.402842 -0.617504
2010-10-26 09:54:20 51°29.149 2°51.521 17.8318 0.069845 0.402737 -0.617504
2010-10-26 09:55:20 51°29.048 2°51.56 17.86 0.069845 0.402779 -0.617504
2010-10-26 09:56:20 51°28.94 2°51.55 17.8737 0.069845 0.402946 -0.617504
2010-10-26 09:57:20 51°28.831 2°51.529 17.8943 0.069845 0.402876 -0.617504
2010-10-26 09:58:20 51°28.721 2°51.504 17.8975 0.069845 0.402911 -0.58268
2010-10-26 09:59:20 51°28.618 2°51.478 17.904 0.069845 0.402911 -0.617504
2010-10-26 10:00:20 51°28.515 2°51.452 17.9261 0.069845 0.403065 -0.617504
2010-10-26 10:01:20 51°28.413 2°51.427 17.9422 0.069845 0.403295 -0.652328
2010-10-26 10:02:20 51°28.311 2°51.401 17.9525 0.069845 0.403197 -0.617504
2010-10-26 10:03:20 51°28.209 2°51.372 17.9636 0.069845 0.403141 -0.58268
2010-10-26 10:04:20 51°28.109 2°51.348 17.9768 0.069845 0.403211 -0.617504
2010-10-26 10:05:20 51°28.012 2°51.325 18.0137 0.069845 0.403267 -0.58268
2010-10-26 10:06:20 51°27.917 2°51.303 18.0111 0.069845 0.403267 -0.58268
2010-10-26 10:07:20 51°27.82 2°51.28 18.0347 0.069845 0.403463 -0.58268
2010-10-26 10:08:20 51°27.72 2°51.256 18.0541 0.069845 0.403631 -0.617504
2010-10-26 10:09:20 51°27.624 2°51.239 18.0548 0.069845 0.403449 -0.617504
2010-10-26 10:10:20 51°27.529 2°51.221 18.0826 0.069845 0.40354 -0.58268
2010-10-26 10:11:20 51°27.431 2°51.2 18.0919 0.069845 0.403491 -0.58268
2010-10-26 10:12:20 51°27.33 2°51.176 18.1082 0.069845 0.403568 -0.58268
2010-10-26 10:13:20 51°27.225 2°51.157 18.1287 0.069845 0.403645 -0.58268
2010-10-26 10:14:20 51°27.119 2°51.136 18.1412 0.069845 0.403848 -0.617504
2010-10-26 10:15:20 51°27.016 2°51.117 18.1475 0.069845 0.403855 -0.617504
2010-10-26 10:16:20 51°26.918 2°51.101 18.1504 0.069845 0.403771 -0.617504
2010-10-26 10:17:20 51°26.821 2°51.084 18.1736 0.069845 0.403687 -0.617504
2010-10-26 10:18:20 51°26.724 2°51.068 18.1939 0.069845 0.403904 -0.58268
2010-10-26 10:19:20 51°26.626 2°51.053 18.2226 0.069845 0.404016 -0.58268
2010-10-26 10:20:20 51°26.527 2°51.036 18.2265 0.069845 0.404009 -0.617504
2010-10-26 10:21:20 51°26.428 2°51.018 18.2405 0.069845 0.404171 -0.58268
2010-10-26 10:22:20 51°26.33 2°51 18.2504 0.069845 0.40415 -0.58268
2010-10-26 10:23:20 51°26.232 2°50.983 18.2564 0.069845 0.404375 -0.617504
2010-10-26 10:24:20 51°26.132 2°50.967 18.287 0.069845 0.404157 -0.58268
2010-10-26 10:25:20 51°26.033 2°50.948 18.3042 0.069845 0.404241 -0.58268
2010-10-26 10:26:20 51°25.936 2°50.928 18.3062 0.069845 0.404178 -0.617504
2010-10-26 10:27:20 51°25.836 2°50.913 18.3309 0.069845 0.404368 -0.617504
2010-10-26 10:28:20 51°25.734 2°50.892 18.3476 0.069845 0.404375 -0.58268
2010-10-26 10:29:20 51°25.632 2°50.864 18.3591 0.069845 0.404529 -0.58268
2010-10-26 10:30:20 51°25.531 2°50.842 18.3806 0.069845 0.404494 -0.617504
2010-10-26 10:31:20 51°25.434 2°50.822 18.3804 0.069845 0.404536 -0.547855
2010-10-26 10:32:20 51°25.338 2°50.798 18.3762 0.069845 0.404508 -0.547855
2010-10-26 10:33:20 51°25.244 2°50.779 18.4029 0.069845 0.404565 -0.58268
2010-10-26 10:34:20 51°25.148 2°50.757 18.4112 0.069845 0.404621 -0.58268
2010-10-26 10:35:20 51°25.055 2°50.738 18.4369 0.069845 0.404466 -0.58268
2010-10-26 10:36:20 51°24.959 2°50.715 18.4257 0.069949 0.405379 -0.58268
2010-10-26 10:37:20 51°24.86 2°50.695 18.4443 0.069845 0.404825 -0.58268
2010-10-26 10:38:20 51°24.765 2°50.677 18.4678 0.069949 0.405386 -0.58268
2010-10-26 10:39:20 51°24.666 2°50.652 18.4875 0.069949 0.40552 -0.547855
2010-10-26 10:40:20 51°24.567 2°50.633 18.495 0.069949 0.405626 -0.58268
2010-10-26 10:41:20 51°24.469 2°50.608 18.5093 0.069949 0.405591 -0.58268
2010-10-26 10:42:20 51°24.369 2°50.589 18.5066 0.069949 0.405577 -0.547855
2010-10-26 10:43:20 51°24.267 2°50.569 18.5258 0.069949 0.405626 -0.547855
2010-10-26 10:44:20 51°24.168 2°50.55 18.5461 0.069949 0.405654 -0.513031
2010-10-26 10:45:20 51°24.065 2°50.528 18.5474 0.069949 0.405796 -0.513031
2010-10-26 10:46:20 51°23.962 2°50.51 18.5661 0.069949 0.405725 -0.547855
2010-10-26 10:47:20 51°23.862 2°50.494 18.5712 0.069949 0.405824 -0.547855
2010-10-26 10:48:20 51°23.761 2°50.475 18.5917 0.069949 0.405881 -0.547855
2010-10-26 10:49:20 51°23.658 2°50.459 18.5985 0.070053 0.406591 -0.513031
2010-10-26 10:50:20 51°23.554 2°50.442 18.6168 0.069949 0.406001 -0.58268
2010-10-26 10:51:20 51°23.452 2°50.435 18.6307 0.070053 0.40674 -0.513031
2010-10-26 10:52:20 51°23.353 2°50.425 18.6396 0.070053 0.406676 -0.58268
2010-10-26 10:53:20 51°23.253 2°50.416 18.6592 0.070053 0.406726 -0.547855
2010-10-26 10:54:20 51°23.151 2°50.407 18.6581 0.070053 0.406924 -0.513031
2010-10-26 10:55:20 51°23.047 2°50.398 18.6634 0.070053 0.40706 -0.547855
2010-10-26 10:56:20 51°22.943 2°50.394 18.6686 0.070053 0.406853 -0.547855
2010-10-26 10:57:20 51°22.84 2°50.389 18.6982 0.070053 0.407003 -0.547855
2010-10-26 10:58:20 51°22.738 2°50.382 18.6984 0.070053 0.407095 -0.513031
2010-10-26 10:59:20 51°22.641 2°50.379 18.7132 0.070053 0.407024 -0.547855
2010-10-26 11:00:20 51°22.543 2°50.373 18.718 0.070053 0.407252 -0.58268
2010-10-26 11:01:20 51°22.446 2°50.37 18.7309 0.070053 0.40733 -0.513031
2010-10-26 11:02:20 51°22.347 2°50.366 18.7373 0.070053 0.407302 -0.547855
2010-10-26 11:03:20 51°22.247 2°50.361 18.7616 0.070053 0.407252 -0.547855
2010-10-26 11:04:20 51°22.149 2°50.358 18.7538 0.070157 0.407856 -0.547855
2010-10-26 11:05:20 51°22.048 2°50.353 18.7837 0.070157 0.407985 -0.513031
2010-10-26 11:06:20 51°21.947 2°50.35 18.7968 0.070157 0.408235 -0.58268
2010-10-26 11:07:20 51°21.846 2°50.346 18.777 0.070157 0.40817 -0.547855
2010-10-26 11:08:20 51°21.745 2°50.346 18.8051 0.070157 0.408163 -0.58268
2010-10-26 11:09:20 51°21.643 2°50.339 18.8092 0.070157 0.40812 -0.547855
2010-10-26 11:10:20 51°21.542 2°50.333 18.8211 0.070157 0.408149 -0.547855
2010-10-26 11:11:20 51°21.44 2°50.326 18.8346 0.070157 0.408085 -0.547855
2010-10-26 11:12:20 51°21.339 2°50.318 18.8343 0.070157 0.408321 -0.547855
2010-10-26 11:13:20 51°21.237 2°50.31 18.8561 0.070157 0.408371 -0.547855
2010-10-26 11:14:20 51°21.137 2°50.306 18.8687 0.070157 0.408263 -0.547855
2010-10-26 11:15:20 51°21.039 2°50.297 18.8753 0.070157 0.408385 -0.547855
2010-10-26 11:16:20 51°20.939 2°50.29 18.8855 0.070157 0.408342 -0.547855
2010-10-26 11:17:20 51°20.839 2°50.283 18.8839 0.070157 0.408328 -0.547855
2010-10-26 11:18:20 51°20.742 2°50.288 18.8959 0.070157 0.408478 -0.547855
2010-10-26 11:19:20 51°20.647 2°50.333 18.9094 0.070157 0.408635 -0.547855
2010-10-26 11:20:20 51°20.554 2°50.382 18.9082 0.070157 0.408693 -0.513031
2010-10-26 11:21:20 51°20.46 2°50.429 18.9336 0.070157 0.408757 -0.547855
2010-10-26 11:22:20 51°20.366 2°50.476 18.9476 0.070157 0.408779 -0.513031
2010-10-26 11:23:20 51°20.271 2°50.519 18.9488 0.070157 0.408721 -0.513031
2010-10-26 11:24:20 51°20.176 2°50.567 18.9668 0.070157 0.408786 -0.547855
2010-10-26 11:25:20 51°20.082 2°50.614 18.968 0.070157 0.408693 -0.547855
2010-10-26 11:26:20 51°19.989 2°50.661 18.9793 0.070157 0.408843 -0.547855
2010-10-26 11:27:20 51°19.895 2°50.712 18.9949 0.070157 0.408865 -0.513031
2010-10-26 11:28:20 51°19.802 2°50.766 18.9998 0.070157 0.408972 -0.547855
2010-10-26 11:29:20 51°19.71 2°50.823 19.0157 0.070157 0.408901 -0.513031
2010-10-26 11:30:20 51°19.617 2°50.879 19.014 0.070157 0.409073 -0.58268
2010-10-26 11:31:20 51°19.523 2°50.935 19.0193 0.070157 0.409252 -0.513031
2010-10-26 11:32:20 51°19.429 2°50.99 19.0422 0.070157 0.40913 -0.547855
2010-10-26 11:33:20 51°19.335 2°51.045 19.0536 0.070157 0.409353 -0.547855
2010-10-26 11:34:20 51°19.24 2°51.097 19.0398 0.070261 0.409852 -0.513031
2010-10-26 11:35:20 51°19.145 2°51.149 19.0571 0.070157 0.409418 -0.513031
2010-10-26 11:36:20 51°19.048 2°51.198 19.0698 0.070157 0.409339 -0.513031
2010-10-26 11:37:20 51°18.952 2°51.248 19.086 0.070261 0.410198 -0.513031
2010-10-26 11:38:20 51°18.856 2°51.297 19.0831 0.070261 0.410032 -0.513031
2010-10-26 11:39:20 51°18.759 2°51.345 19.0859 0.070261 0.410191 -0.547855
2010-10-26 11:40:20 51°18.663 2°51.393 19.0974 0.070157 0.409483 -0.513031
2010-10-26 11:41:20 51°18.566 2°51.442 19.1055 0.070261 0.410364 -0.513031
2010-10-26 11:42:20 51°18.471 2°51.493 19.1193 0.070261 0.410169 -0.513031
2010-10-26 11:43:20 51°18.375 2°51.536 19.1344 0.070261 0.410277 -0.513031
2010-10-26 11:44:20 51°18.28 2°51.56 19.1428 0.070157 0.409555 -0.513031
2010-10-26 11:45:20 51°18.184 2°51.585 19.157 0.070261 0.410378 -0.547855
2010-10-26 11:46:20 51°18.089 2°51.613 19.151 0.070261 0.410219 -0.513031
2010-10-26 11:47:20 51°17.994 2°51.645 19.1454 0.070261 0.410414 -0.513031
2010-10-26 11:48:20 51°17.9 2°51.676 19.1621 0.070261 0.410429 -0.478207
2010-10-26 11:49:20 51°17.806 2°51.707 19.1783 0.070261 0.410357 -0.478207
2010-10-26 11:50:20 51°17.713 2°51.744 19.1797 0.070261 0.410487 -0.513031
2010-10-26 11:51:20 51°17.618 2°51.762 19.1727 0.070261 0.410414 -0.478207
2010-10-26 11:52:20 51°17.521 2°51.77 19.1931 0.070261 0.410617 -0.478207
2010-10-26 11:53:20 51°17.424 2°51.777 19.191 0.070261 0.410602 -0.513031
2010-10-26 11:54:20 51°17.327 2°51.786 19.2066 0.070261 0.410588 -0.513031
2010-10-26 11:55:20 51°17.23 2°51.796 19.1992 0.070261 0.410646 -0.513031
2010-10-26 11:56:20 51°17.133 2°51.806 19.2203 0.070261 0.41074 -0.478207
2010-10-26 11:57:20 51°17.036 2°51.82 19.2058 0.070261 0.410776 -0.478207
2010-10-26 11:58:20 51°16.941 2°51.836 19.2331 0.070261 0.410783 -0.513031
2010-10-26 11:59:20 51°16.845 2°51.849 19.221 0.070261 0.410703 -0.513031
2010-10-26 12:00:20 51°16.748 2°51.867 19.2551 0.070261 0.410906 -0.513031
2010-10-26 12:01:20 51°16.654 2°51.9 19.2523 0.070261 0.41087 -0.513031
2010-10-26 12:02:20 51°16.56 2°51.951 19.2574 0.070261 0.411167 -0.443383
2010-10-26 12:03:20 51°16.468 2°52.003 19.2705 0.070261 0.411065 -0.478207
2010-10-26 12:04:20 51°16.377 2°52.057 19.2695 0.070261 0.411044 -0.478207
2010-10-26 12:05:20 51°16.289 2°52.107 19.2828 0.070261 0.411196 -0.513031
2010-10-26 12:06:20 51°16.199 2°52.161 19.2976 0.070261 0.411283 -0.478207
2010-10-26 12:07:20 51°16.105 2°52.214 19.2941 0.070261 0.411312 -0.478207
2010-10-26 12:08:20 51°16.009 2°52.27 19.3117 0.070261 0.41137 -0.478207
2010-10-26 12:09:20 51°15.915 2°52.325 19.3229 0.070261 0.411261 -0.513031
2010-10-26 12:10:20 51°15.821 2°52.379 19.3121 0.070261 0.41129 -0.478207
2010-10-26 12:11:20 51°15.727 2°52.437 19.3359 0.070261 0.411421 -0.478207
2010-10-26 12:12:20 51°15.635 2°52.494 19.3197 0.070261 0.411435 -0.478207
2010-10-26 12:13:20 51°15.542 2°52.514 19.3416 0.070261 0.411399 -0.443383
2010-10-26 12:14:20 51°15.447 2°52.511 19.3226 0.070261 0.411355 -0.478207
2010-10-26 12:15:20 51°15.338 2°52.506 19.3265 0.070261 0.411552 -0.443383
2010-10-26 12:16:20 51°15.241 2°52.449 19.3401 0.070261 0.411479 -0.443383
2010-10-26 12:17:20 51°15.163 2°52.348 19.3562 0.070261 0.411472 -0.478207
2010-10-26 12:18:20 51°15.093 2°52.236 19.3688 0.070261 0.41153 -0.478207
2010-10-26 12:19:20 51°15.049 2°52.094 19.3772 0.070261 0.411544 -0.478207
2010-10-26 12:20:20 51°15.006 2°51.948 19.3684 0.070261 0.411668 -0.443383
2010-10-26 12:21:20 51°14.97 2°51.799 19.3895 0.070261 0.411711 -0.443383
2010-10-26 12:22:20 51°14.934 2°51.649 19.3855 0.070261 0.411675 -0.478207
2010-10-26 12:23:20 51°14.897 2°51.5 19.3955 0.070261 0.411682 -0.443383
2010-10-26 12:24:20 51°14.86 2°51.352 19.3959 0.070261 0.411821 -0.443383
2010-10-26 12:25:20 51°14.823 2°51.204 19.4071 0.070261 0.411704 -0.443383
2010-10-26 12:26:20 51°14.785 2°51.057 19.4169 0.070261 0.411777 -0.478207
2010-10-26 12:27:20 51°14.748 2°50.91 19.3987 0.070261 0.411973 -0.478207
2010-10-26 12:28:20 51°14.711 2°50.763 19.4334 0.070261 0.411973 -0.478207
2010-10-26 12:29:20 51°14.677 2°50.614 19.4289 0.070261 0.412046 -0.478207
2010-10-26 12:30:20 51°14.654 2°50.457 19.4406 0.070261 0.411893 -0.443383
2010-10-26 12:31:20 51°14.631 2°50.302 19.4289 0.070261 0.412097 -0.443383
2010-10-26 12:32:20 51°14.608 2°50.146 19.4513 0.070261 0.412163 -0.443383
2010-10-26 12:33:20 51°14.584 2°49.992 19.4413 0.070261 0.412061 -0.478207
2010-10-26 12:34:20 51°14.56 2°49.838 19.447 0.070261 0.412127 -0.443383
2010-10-26 12:35:20 51°14.537 2°49.683 19.4626 0.070261 0.41209 -0.478207
2010-10-26 12:36:20 51°14.515 2°49.528 19.4761 0.070261 0.412163 -0.443383
2010-10-26 12:37:20 51°14.493 2°49.375 19.4607 0.070261 0.412199 -0.443383
2010-10-26 12:38:20 51°14.47 2°49.225 19.4695 0.070261 0.412185 -0.443383
2010-10-26 12:39:20 51°14.448 2°49.076 19.4744 0.070261 0.412367 -0.443383
2010-10-26 12:40:20 51°14.429 2°48.93 19.4897 0.070261 0.412221 -0.443383
2010-10-26 12:41:20 51°14.409 2°48.785 19.4857 0.070261 0.412396 -0.443383
2010-10-26 12:42:20 51°14.389 2°48.64 19.5007 0.070261 0.412367 -0.478207
2010-10-26 12:43:20 51°14.368 2°48.492 19.4809 0.070261 0.412323 -0.443383
2010-10-26 12:44:20 51°14.346 2°48.341 19.5184 0.070261 0.412484 -0.443383
2010-10-26 12:45:20 51°14.325 2°48.188 19.5113 0.070261 0.412433 -0.443383
2010-10-26 12:46:20 51°14.304 2°48.036 19.5004 0.070261 0.412418 -0.443383
2010-10-26 12:47:20 51°14.281 2°47.881 19.5131 0.070261 0.412513 -0.443383
2010-10-26 12:48:20 51°14.258 2°47.725 19.5114 0.070261 0.412448 -0.443383
2010-10-26 12:49:20 51°14.233 2°47.57 19.53 0.070261 0.412645 -0.408559
2010-10-26 12:50:20 51°14.21 2°47.416 19.5382 0.070261 0.412484 -0.408559
2010-10-26 12:51:20 51°14.185 2°47.262 19.5332 0.070261 0.412681 -0.443383
2010-10-26 12:52:20 51°14.161 2°47.108 19.5456 0.070261 0.412703 -0.408559
2010-10-26 12:53:20 51°14.137 2°46.955 19.5432 0.070261 0.412608 -0.443383
2010-10-26 12:54:20 51°14.112 2°46.802 19.5694 0.070261 0.412623 -0.443383
2010-10-26 12:55:20 51°14.089 2°46.65 19.5505 0.070261 0.412667 -0.443383
2010-10-26 12:56:20 51°14.065 2°46.498 19.5665 0.070261 0.412762 -0.443383
2010-10-26 12:57:20 51°14.041 2°46.345 19.5544 0.070261 0.412769 -0.443383
2010-10-26 12:58:20 51°14.018 2°46.192 19.5635 0.070261 0.412762 -0.408559
2010-10-26 12:59:20 51°13.995 2°46.036 19.5681 0.070261 0.412711 -0.478207
2010-10-26 13:00:20 51°13.97 2°45.88 19.5734 0.070261 0.412894 -0.408559
2010-10-26 13:01:20 51°13.946 2°45.724 19.5756 0.070261 0.412938 -0.408559
2010-10-26 13:02:20 51°13.915 2°45.573 19.5699 0.070261 0.412938 -0.443383
2010-10-26 13:03:20 51°13.882 2°45.421 19.5994 0.070261 0.412857 -0.408559
2010-10-26 13:04:20 51°13.849 2°45.271 19.5697 0.070261 0.412989 -0.408559
2010-10-26 13:05:20 51°13.816 2°45.12 19.5998 0.070261 0.412945 -0.408559
2010-10-26 13:06:20 51°13.784 2°44.969 19.5927 0.070261 0.41293 -0.408559
2010-10-26 13:07:20 51°13.751 2°44.817 19.61 0.070261 0.412945 -0.408559
2010-10-26 13:08:20 51°13.718 2°44.666 19.6192 0.070261 0.413062 -0.408559
2010-10-26 13:09:20 51°13.685 2°44.514 19.6391 0.070261 0.413033 -0.443383
2010-10-26 13:10:20 51°13.652 2°44.363 19.638 0.070261 0.413179 -0.443383
2010-10-26 13:11:20 51°13.619 2°44.212 19.6341 0.070261 0.412945 -0.408559
2010-10-26 13:12:20 51°13.585 2°44.06 19.6596 0.070261 0.413011 -0.443383
2010-10-26 13:13:20 51°13.551 2°43.908 19.6624 0.070261 0.413069 -0.443383
2010-10-26 13:14:20 51°13.518 2°43.758 19.6567 0.070261 0.413025 -0.408559
2010-10-26 13:15:20 51°13.485 2°43.609 19.6664 0.070261 0.413157 -0.443383
2010-10-26 13:16:20 51°13.452 2°43.459 19.6584 0.070261 0.413209 -0.408559
2010-10-26 13:17:20 51°13.414 2°43.313 19.6571 0.070261 0.413245 -0.408559
2010-10-26 13:18:20 51°13.377 2°43.167 19.6592 0.070261 0.413172 -0.443383
2010-10-26 13:19:20 51°13.339 2°43.022 19.6714 0.070261 0.413311 -0.443383
2010-10-26 13:20:20 51°13.301 2°42.874 19.6829 0.070261 0.413253 -0.408559
2010-10-26 13:21:20 51°13.263 2°42.726 19.678 0.070261 0.413341 -0.408559
2010-10-26 13:22:20 51°13.227 2°42.58 19.6932 0.070261 0.413326 -0.443383
2010-10-26 13:23:20 51°13.19 2°42.434 19.6912 0.070261 0.413429 -0.408559
2010-10-26 13:24:20 51°13.154 2°42.287 19.7013 0.070261 0.413297 -0.443383
2010-10-26 13:25:20 51°13.118 2°42.14 19.7078 0.070261 0.41337 -0.443383
2010-10-26 13:26:20 51°13.082 2°41.993 19.7007 0.070261 0.413348 -0.443383
2010-10-26 13:27:20 51°13.046 2°41.847 19.6848 0.070261 0.413392 -0.443383
2010-10-26 13:28:20 51°13.011 2°41.699 19.7197 0.070261 0.413333 -0.408559
2010-10-26 13:29:20 51°12.975 2°41.552 19.7267 0.070261 0.413466 -0.443383
2010-10-26 13:30:20 51°12.941 2°41.404 19.7368 0.070261 0.41337 -0.443383
2010-10-26 13:31:20 51°12.906 2°41.257 19.7 0.070261 0.413613 -0.443383
2010-10-26 13:32:20 51°12.871 2°41.11 19.7213 0.070261 0.413495 -0.443383
2010-10-26 13:33:20 51°12.836 2°40.96 19.7499 0.070261 0.413539 -0.408559
2010-10-26 13:34:20 51°12.8 2°40.812 19.7227 0.070261 0.413671 -0.408559
2010-10-26 13:35:20 51°12.765 2°40.665 19.7377 0.070261 0.413532 -0.443383
2010-10-26 13:36:20 51°12.732 2°40.517 19.7474 0.070261 0.413473 -0.408559
2010-10-26 13:37:20 51°12.697 2°40.368 19.776 0.070261 0.413473 -0.408559
2010-10-26 13:38:20 51°12.661 2°40.22 19.7826 0.070261 0.413444 -0.408559
2010-10-26 13:39:20 51°12.616 2°40.084 19.7901 0.070261 0.413554 -0.408559
2010-10-26 13:40:20 51°12.571 2°39.945 19.7883 0.070261 0.413546 -0.408559
2010-10-26 13:41:20 51°12.528 2°39.807 19.7893 0.070261 0.413657 -0.408559
2010-10-26 13:42:20 51°12.484 2°39.67 19.7867 0.070261 0.413657 -0.443383
2010-10-26 13:43:20 51°12.431 2°39.541 19.8083 0.070261 0.413936 -0.408559
2010-10-26 13:44:20 51°12.373 2°39.42 19.8076 0.070261 0.413774 -0.443383
2010-10-26 13:45:20 51°12.316 2°39.297 19.8038 0.070261 0.4139 -0.408559
2010-10-26 13:46:20 51°12.259 2°39.173 19.8039 0.070261 0.413716 -0.408559
2010-10-26 13:47:20 51°12.202 2°39.049 19.8048 0.070261 0.413804 -0.443383
2010-10-26 13:48:20 51°12.143 2°38.921 19.8105 0.070261 0.413774 -0.408559
2010-10-26 13:49:20 51°12.079 2°38.784 19.8248 0.070261 0.413642 -0.443383
2010-10-26 13:50:20 51°12.016 2°38.644 19.8234 0.070261 0.413723 -0.408559
2010-10-26 13:51:20 51°11.951 2°38.503 19.8219 0.070365 0.414409 -0.408559
2010-10-26 13:52:20 51°11.892 2°38.369 19.8161 0.070261 0.413914 -0.408559
2010-10-26 13:53:20 51°11.835 2°38.238 19.8336 0.070365 0.414357 -0.408559
2010-10-26 13:54:20 51°11.777 2°38.106 19.841 0.070261 0.413774 -0.408559
2010-10-26 13:55:20 51°11.718 2°37.976 19.8332 0.070365 0.414534 -0.408559
2010-10-26 13:56:20 51°11.662 2°37.844 19.8538 0.070365 0.414453 -0.408559
2010-10-26 13:57:20 51°11.602 2°37.712 19.8553 0.070365 0.414571 -0.408559
2010-10-26 13:58:20 51°11.542 2°37.579 19.8642 0.070365 0.414483 -0.408559
2010-10-26 13:59:20 51°11.484 2°37.448 19.8691 0.070261 0.413995 -0.408559
2010-10-26 14:00:20 51°11.425 2°37.314 19.8875 0.070365 0.414726 -0.408559
2010-10-26 14:01:20 51°11.367 2°37.181 19.8898 0.070365 0.414719 -0.408559
2010-10-26 14:02:20 51°11.307 2°37.049 19.9021 0.070365 0.414623 -0.408559
2010-10-26 14:03:20 51°11.246 2°36.918 19.8904 0.070365 0.414652 -0.443383
2010-10-26 14:04:20 51°11.186 2°36.784 19.884 0.070365 0.414453 -0.408559
2010-10-26 14:05:20 51°11.124 2°36.65 19.8722 0.070365 0.414564 -0.373735
2010-10-26 14:06:20 51°11.063 2°36.515 19.8933 0.070365 0.414623 -0.408559
2010-10-26 14:07:20 51°11.002 2°36.382 19.8984 0.070365 0.414711 -0.408559
2010-10-26 14:08:20 51°10.941 2°36.249 19.9341 0.070365 0.414704 -0.373735
2010-10-26 14:09:20 51°10.879 2°36.116 19.9014 0.070365 0.414785 -0.408559
2010-10-26 14:10:20 51°10.817 2°35.981 19.9136 0.070365 0.414719 -0.373735
2010-10-26 14:11:20 51°10.757 2°35.845 19.9303 0.070365 0.414719 -0.443383
2010-10-26 14:12:20 51°10.693 2°35.713 19.9696 0.070365 0.414815 -0.408559
2010-10-26 14:13:20 51°10.597 2°35.652 19.9257 0.070365 0.414918 -0.408559
2010-10-26 14:14:20 51°10.493 2°35.612 19.9261 0.070365 0.414889 -0.408559
2010-10-26 14:15:20 51°10.389 2°35.571 19.9374 0.070365 0.414763 -0.408559
2010-10-26 14:16:20 51°10.286 2°35.532 19.9432 0.070365 0.414674 -0.408559
2010-10-26 14:17:20 51°10.181 2°35.508 19.9546 0.070365 0.41477 -0.408559
2010-10-26 14:18:20 51°10.069 2°35.535 19.9128 0.070365 0.414903 -0.408559
2010-10-26 14:19:20 51°9.969 2°35.605 19.9607 0.070365 0.414837 -0.408559
2010-10-26 14:20:20 51°9.891 2°35.716 19.997 0.070365 0.414896 -0.443383
2010-10-26 14:21:20 51°9.848 2°35.88 19.9702 0.070365 0.415066 -0.408559
2010-10-26 14:22:20 51°9.818 2°36.046 19.9527 0.070365 0.414955 -0.408559
2010-10-26 14:23:20 51°9.803 2°36.212 19.9822 0.070365 0.415133 -0.408559
2010-10-26 14:24:20 51°9.808 2°36.386 19.9786 0.070365 0.415103 -0.408559
2010-10-26 14:25:20 51°9.826 2°36.56 20.0041 0.070365 0.415125 -0.408559
2010-10-26 14:26:20 51°9.85 2°36.733 20.0053 0.070365 0.415133 -0.408559
2010-10-26 14:27:20 51°9.87 2°36.897 20.026 0.070365 0.41517 -0.373735
2010-10-26 14:28:20 51°9.888 2°37.059 20.0224 0.070365 0.415288 -0.373735
2010-10-26 14:29:20 51°9.909 2°37.221 20.0277 0.070365 0.415421 -0.408559
2010-10-26 14:30:20 51°9.928 2°37.383 20.0341 0.070365 0.415533 -0.373735
2010-10-26 14:31:20 51°9.948 2°37.543 20.0505 0.070365 0.415518 -0.408559
2010-10-26 14:32:20 51°9.969 2°37.702 20.0249 0.070365 0.415666 -0.408559
2010-10-26 14:33:20 51°9.989 2°37.861 20.0375 0.070365 0.415577 -0.408559
2010-10-26 14:34:20 51°10.009 2°38.021 20.0728 0.070365 0.415592 -0.373735
2010-10-26 14:35:20 51°10.028 2°38.181 20.0463 0.070365 0.41574 -0.408559
2010-10-26 14:36:20 51°10.047 2°38.341 20.0587 0.070365 0.415763 -0.373735
2010-10-26 14:37:20 51°10.068 2°38.502 20.0883 0.070365 0.415681 -0.408559
2010-10-26 14:38:20 51°10.09 2°38.667 20.0917 0.070365 0.415718 -0.408559
2010-10-26 14:39:20 51°10.115 2°38.838 20.084 0.070365 0.415733 -0.408559
2010-10-26 14:40:20 51°10.138 2°39.009 20.0867 0.070365 0.415792 -0.408559
2010-10-26 14:41:20 51°10.159 2°39.179 20.1036 0.070365 0.415733 -0.373735
2010-10-26 14:42:20 51°10.179 2°39.347 20.1018 0.070365 0.415807 -0.408559
2010-10-26 14:43:20 51°10.213 2°39.572 20.0967 0.070365 0.415785 -0.408559
2010-10-26 14:44:20 51°10.288 2°39.909 20.0237 0.070365 0.416 -0.408559
2010-10-26 14:45:20 51°10.366 2°40.284 20.0779 0.070365 0.416008 -0.408559
2010-10-26 14:46:20 51°10.439 2°40.661 20.1053 0.070365 0.415919 -0.408559
2010-10-26 14:47:20 51°10.509 2°41.038 20.1057 0.070365 0.415993 -0.373735
2010-10-26 14:48:20 51°10.577 2°41.413 20.1077 0.070365 0.415971 -0.408559
2010-10-26 14:49:20 51°10.645 2°41.783 20.1048 0.070365 0.416052 -0.373735
2010-10-26 14:50:20 51°10.718 2°42.154 20.1147 0.070365 0.415993 -0.408559
2010-10-26 14:51:20 51°10.807 2°42.516 20.1307 0.070365 0.416194 -0.373735
2010-10-26 14:52:20 51°10.895 2°42.88 20.1341 0.070365 0.415629 -0.408559
2010-10-26 14:53:20 51°10.983 2°43.246 20.1246 0.070365 0.415696 -0.373735
2010-10-26 14:54:20 51°11.07 2°43.61 20.1592 0.070365 0.415926 -0.373735
2010-10-26 14:55:20 51°11.154 2°43.972 20.1266 0.070365 0.415986 -0.408559
2010-10-26 14:56:20 51°11.244 2°44.333 20.1254 0.070365 0.415636 -0.373735
2010-10-26 14:57:20 51°11.331 2°44.695 20.1616 0.070365 0.415666 -0.408559
2010-10-26 14:58:20 51°11.416 2°45.051 20.1528 0.070365 0.415421 -0.373735
2010-10-26 14:59:20 51°11.503 2°45.409 20.1574 0.070365 0.41574 -0.408559
2010-10-26 15:00:20 51°11.602 2°45.763 20.1654 0.070365 0.415785 -0.373735
2010-10-26 15:01:20 51°11.703 2°46.113 20.1967 0.070365 0.415399 -0.373735
2010-10-26 15:02:20 51°11.813 2°46.459 20.1972 0.070365 0.415362 -0.373735
2010-10-26 15:03:20 51°11.914 2°46.816 20.213 0.070365 0.415384 -0.373735
2010-10-26 15:04:20 51°12.012 2°47.172 20.2043 0.070365 0.415711 -0.408559
2010-10-26 15:05:20 51°12.114 2°47.528 20.2124 0.070365 0.415451 -0.373735
2010-10-26 15:06:20 51°12.215 2°47.886 20.1465 0.070469 0.416154 -0.408559
2010-10-26 15:07:20 51°12.319 2°48.245 20.194 0.070365 0.415659 -0.373735
2010-10-26 15:08:20 51°12.43 2°48.592 20.1782 0.070365 0.41537 -0.408559
2010-10-26 15:09:20 51°12.557 2°48.928 20.1598 0.070469 0.416095 -0.373735
2010-10-26 15:10:20 51°12.678 2°49.267 20.2498 0.070469 0.415872 -0.408559
2010-10-26 15:11:20 51°12.783 2°49.616 20.1844 0.070365 0.415421 -0.373735
2010-10-26 15:12:20 51°12.891 2°49.961 20.1601 0.070469 0.415835 -0.373735
2010-10-26 15:13:20 51°13.009 2°50.288 20.2566 0.070469 0.416206 -0.373735
2010-10-26 15:14:20 51°13.112 2°50.632 20.2595 0.070469 0.41585 -0.408559
2010-10-26 15:15:20 51°13.219 2°50.976 20.2421 0.070469 0.416147 -0.373735
2010-10-26 15:16:20 51°13.34 2°51.309 20.2773 0.070469 0.416139 -0.408559
2010-10-26 15:17:20 51°13.46 2°51.644 20.3001 0.070469 0.416117 -0.373735
2010-10-26 15:18:20 51°13.596 2°51.965 20.3236 0.070469 0.416139 -0.373735
2010-10-26 15:19:20 51°13.736 2°52.282 20.2672 0.070469 0.41605 -0.408559
2010-10-26 15:20:20 51°13.871 2°52.6 20.2124 0.070469 0.416258 -0.373735
2010-10-26 15:21:20 51°14.009 2°52.913 20.234 0.070469 0.416125 -0.373735
2010-10-26 15:22:20 51°14.147 2°53.229 20.3318 0.070469 0.416169 -0.373735
2010-10-26 15:23:20 51°14.286 2°53.545 20.2722 0.070469 0.41631 -0.373735
2010-10-26 15:24:20 51°14.426 2°53.863 20.2921 0.070469 0.416206 -0.408559
2010-10-26 15:25:20 51°14.57 2°54.176 20.2679 0.070469 0.416325 -0.408559
2010-10-26 15:26:20 51°14.635 2°54.538 20.2965 0.070469 0.416459 -0.373735
2010-10-26 15:27:20 51°14.582 2°54.886 20.2863 0.070469 0.416266 -0.338911
2010-10-26 15:28:20 51°14.428 2°55.103 20.3547 0.070469 0.416385 -0.338911
2010-10-26 15:29:20 51°14.265 2°55.271 20.3313 0.070469 0.416623 -0.408559
2010-10-26 15:30:20 51°14.139 2°55.403 20.347 0.070469 0.416675 -0.373735
2010-10-26 15:31:20 51°14.019 2°55.493 20.3642 0.070469 0.416734 -0.408559
2010-10-26 15:32:20 51°13.895 2°55.58 20.3593 0.070469 0.416846 -0.373735
2010-10-26 15:33:20 51°13.795 2°55.666 20.3941 0.070469 0.416913 -0.373735
2010-10-26 15:34:20 51°13.733 2°55.767 20.389 0.070469 0.41698 -0.373735
2010-10-26 15:35:20 51°13.691 2°55.863 20.4158 0.070469 0.41704 -0.338911
2010-10-26 15:36:20 51°13.666 2°55.953 20.3907 0.070469 0.417092 -0.373735